| time (UTC) | temp C | wind direction | speed KPH | gust KPH | rain 1hr cm | rain 24hr cm | rain mn cm | humidity % | barometer mb |
| 20260505023216 | 9 | 218 | 0.0 | 0.0 | 0.00 | 0.00 | 0.00 | 71 | 975.7 |
| 20260505022716 | 9 | 218 | 0.0 | 0.0 | 0.00 | 0.00 | 0.00 | 70 | 975.7 |
| 20260505022216 | 9 | 218 | 0.0 | 3.2 | 0.00 | 0.00 | 0.00 | 70 | 975.5 |
| 20260505021714 | 9 | 217 | 0.0 | 3.2 | 0.00 | 0.00 | 0.00 | 69 | 975.6 |
| 20260505021214 | 9 | 217 | 0.0 | 0.0 | 0.00 | 0.00 | 0.00 | 69 | 975.5 |
| 20260505020714 | 10 | 281 | 0.0 | 1.6 | 0.00 | 0.00 | 0.00 | 68 | 975.5 |
| 20260505020214 | 10 | 259 | 0.0 | 4.8 | 0.00 | 0.00 | 0.00 | 67 | 975.7 |
| 20260505015713 | 10 | 317 | 0.0 | 4.8 | 0.00 | 0.00 | 0.00 | 67 | 975.7 |
| 20260505015215 | 10 | 288 | 0.0 | 3.2 | 0.00 | 0.00 | 0.00 | 67 | 975.6 |
| 20260505014719 | 10 | 161 | 0.0 | 1.6 | 0.00 | 0.00 | 0.00 | 66 | 975.3 |
| 20260505014715 | 10 | 193 | 0.0 | 0.0 | 0.00 | 0.00 | 0.00 | 66 | 975.6 |
| 20260505013714 | 10 | 231 | 0.0 | 1.6 | 0.00 | 0.00 | 0.00 | 61 | 975.2 |
| 20260505013214 | 10 | 304 | 0.0 | 1.6 | 0.00 | 0.00 | 0.00 | 58 | 975.4 |
| 20260505012712 | 10 | 334 | 1.6 | 16.1 | 0.00 | 0.00 | 0.00 | 62 | 975.5 |
| 20260505012212 | 11 | 320 | 3.2 | 16.1 | 0.00 | 0.00 | 0.00 | 62 | 975.5 |
| 20260505011712 | 11 | 349 | 3.2 | 14.5 | 0.00 | 0.00 | 0.00 | 56 | 975.6 |
| 20260505011212 | 11 | 312 | 3.2 | 17.7 | 0.00 | 0.00 | 0.00 | 53 | 975.6 |
| 20260505010711 | 12 | 326 | 3.2 | 17.7 | 0.00 | 0.00 | 0.00 | 49 | 975.3 |
| 20260505010212 | 12 | 304 | 4.8 | 19.3 | 0.00 | 0.00 | 0.00 | 46 | 975.3 |
| 20260505005712 | 12 | 320 | 6.4 | 19.3 | 0.00 | 0.00 | 0.00 | 46 | 975.2 |
| 20260505005212 | 12 | 322 | 4.8 | 16.1 | 0.00 | 0.00 | 0.00 | 45 | 974.9 |
| 20260505004712 | 12 | 335 | 1.6 | 8.0 | 0.00 | 0.00 | 0.00 | 45 | 974.9 |
| 20260505004212 | 12 | 328 | 0.0 | 3.2 | 0.00 | 0.00 | 0.00 | 47 | 974.9 |
| 20260505003710 | 12 | 262 | 0.0 | 3.2 | 0.00 | 0.00 | 0.00 | 47 | 974.9 |
| 20260505003209 | 12 | 199 | 0.0 | 3.2 | 0.00 | 0.00 | 0.00 | 47 | 974.8 |
| 20260505002709 | 12 | 135 | 0.0 | 1.6 | 0.00 | 0.00 | 0.00 | 46 | 974.9 |
| 20260505002210 | 12 | 155 | 0.0 | 1.6 | 0.00 | 0.00 | 0.00 | 48 | 975.0 |
| 20260505001709 | 12 | 129 | 0.0 | 1.6 | 0.00 | 0.00 | 0.00 | 47 | 974.9 |
| 20260505001210 | 12 | 351 | 0.0 | 1.6 | 0.00 | 0.00 | 0.00 | 48 | 975.0 |
| 20260505000710 | 12 | 181 | 0.0 | 1.6 | 0.00 | 0.00 | 0.00 | 47 | 974.9 |
| 20260505000211 | 12 | 252 | 0.0 | 1.6 | 0.00 | 0.00 | 0.00 | 45 | 974.8 |
| 20260504235710 | 13 | 185 | 1.6 | 1.6 | 0.00 | 0.00 | 0.00 | 46 | 974.9 |
| 20260504235210 | 13 | 111 | 1.6 | 0.0 | 0.00 | 0.00 | 0.00 | 45 | 974.8 |
| 20260504203309 | 19 | 316 | 8.0 | 17.7 | 0.00 | 0.00 | 0.00 | 23 | 973.3 |
| 20260504202813 | 19 | 338 | 9.7 | 24.1 | 0.00 | 0.00 | 0.00 | 24 | 973.4 |
| 20260504202809 | 19 | 11 | 9.7 | 24.1 | 0.00 | 0.00 | 0.00 | 24 | 973.4 |
| 20260504201809 | 18 | 330 | 9.7 | 19.3 | 0.00 | 0.00 | 0.00 | 24 | 973.4 |
| 20260504201310 | 18 | 335 | 9.7 | 19.3 | 0.00 | 0.00 | 0.00 | 24 | 973.5 |
| 20260504200809 | 17 | 312 | 9.7 | 20.9 | 0.00 | 0.00 | 0.00 | 24 | 973.5 |
| 20260504200312 | 17 | 323 | 8.0 | 19.3 | 0.00 | 0.00 | 0.00 | 24 | 973.7 |
| 20260504200308 | 17 | 358 | 9.7 | 20.9 | 0.00 | 0.00 | 0.00 | 25 | 973.6 |
| 20260504195311 | 17 | 328 | 8.0 | 16.1 | 0.00 | 0.00 | 0.00 | 26 | 973.7 |
| 20260504195307 | 17 | 21 | 8.0 | 19.3 | 0.00 | 0.00 | 0.00 | 25 | 973.7 |
| 20260504194305 | 18 | 316 | 9.7 | 17.7 | 0.00 | 0.00 | 0.00 | 26 | 973.9 |
| 20260504193805 | 18 | 4 | 9.7 | 20.9 | 0.00 | 0.00 | 0.00 | 26 | 973.9 |
| 20260504193306 | 18 | 311 | 9.7 | 20.9 | 0.00 | 0.00 | 0.00 | 26 | 973.7 |
| 20260504192810 | 18 | 338 | 8.0 | 19.3 | 0.00 | 0.00 | 0.00 | 24 | 973.7 |
| 20260504192805 | 18 | 311 | 9.7 | 19.3 | 0.00 | 0.00 | 0.00 | 25 | 973.7 |
| 20260504191805 | 19 | 34 | 8.0 | 17.7 | 0.00 | 0.00 | 0.00 | 22 | 973.5 |
| 20260504191311 | 21 | 331 | 3.2 | 17.7 | 0.00 | 0.00 | 0.00 | 20 | 973.4 |
| 20260504191305 | 20 | 23 | 8.0 | 17.7 | 0.00 | 0.00 | 0.00 | 21 | 973.4 |
| 20260504190305 | 21 | 285 | 1.6 | 8.0 | 0.00 | 0.00 | 0.00 | 18 | 973.4 |
| 20260504185805 | 22 | 163 | 0.0 | 4.8 | 0.00 | 0.00 | 0.00 | 19 | 973.3 |
| 20260504185304 | 22 | 122 | 0.0 | 1.6 | 0.00 | 0.00 | 0.00 | 16 | 973.3 |
| 20260504184803 | 22 | 119 | 1.6 | 4.8 | 0.00 | 0.00 | 0.00 | 15 | 973.4 |
| 20260504184308 | 21 | 211 | 1.6 | 6.4 | 0.00 | 0.00 | 0.00 | 18 | 973.6 |
| 20260504184304 | 21 | 203 | 1.6 | 6.4 | 0.00 | 0.00 | 0.00 | 15 | 973.5 |
| 20260504183307 | 20 | 127 | 1.6 | 14.5 | 0.00 | 0.00 | 0.00 | 20 | 973.9 |
| 20260504183302 | 20 | 85 | 0.0 | 4.8 | 0.00 | 0.00 | 0.00 | 20 | 973.7 |
| 20260504182304 | 18 | 138 | 6.4 | 16.1 | 0.00 | 0.00 | 0.00 | 20 | 974.0 |
| 20260504181803 | 17 | 146 | 6.4 | 16.1 | 0.00 | 0.00 | 0.00 | 21 | 974.0 |
| 20260504181303 | 17 | 209 | 4.8 | 14.5 | 0.00 | 0.00 | 0.00 | 23 | 974.2 |
| 20260504180806 | 18 | 198 | 4.8 | 19.3 | 0.00 | 0.00 | 0.00 | 22 | 974.2 |
| 20260504180802 | 18 | 183 | 4.8 | 11.3 | 0.00 | 0.00 | 0.00 | 22 | 974.2 |
| 20260504175801 | 18 | 264 | 3.2 | 19.3 | 0.00 | 0.00 | 0.00 | 21 | 974.2 |
| 20260504175301 | 19 | 239 | 3.2 | 16.1 | 0.00 | 0.00 | 0.00 | 20 | 974.3 |
| 20260504174801 | 20 | 169 | 3.2 | 17.7 | 0.00 | 0.00 | 0.00 | 19 | 974.4 |
| 20260504174305 | 20 | 219 | 3.2 | 16.1 | 0.00 | 0.00 | 0.00 | 20 | 974.7 |
| 20260504174301 | 20 | 221 | 3.2 | 17.7 | 0.00 | 0.00 | 0.00 | 21 | 974.4 |
| 20260504173907 | 19 | 199 | 3.2 | 14.5 | 0.00 | 0.00 | 0.00 | 23 | 974.6 |
| 20260504173407 | 19 | 198 | 3.2 | 14.5 | 0.00 | 0.00 | 0.00 | 24 | 974.8 |
| 20260504172907 | 18 | 3 | 4.8 | 12.9 | 0.00 | 0.00 | 0.00 | 24 | 974.8 |
| 20260504171804 | 18 | 222 | 6.4 | 17.7 | 0.00 | 0.00 | 0.00 | 26 | 974.9 |
| 20260504171800 | 18 | 338 | 6.4 | 17.7 | 0.00 | 0.00 | 0.00 | 26 | 974.9 |
| 20260504170759 | 18 | 198 | 4.8 | 17.7 | 0.00 | 0.00 | 0.00 | 26 | 975.0 |
| 20260504170257 | 18 | 237 | 4.8 | 16.1 | 0.00 | 0.00 | 0.00 | 25 | 975.0 |
| 20260504160400 | 18 | 141 | 3.2 | 12.9 | 0.00 | 0.00 | 0.00 | 24 | 975.5 |
| 20260504150751 | 17 | 249 | 3.2 | 19.3 | 0.00 | 0.00 | 0.00 | 26 | 975.7 |
| 20260504150746 | 17 | 48 | 3.2 | 19.3 | 0.00 | 0.00 | 0.00 | 26 | 975.7 |
| 20260504150352 | 16 | 204 | 3.2 | 12.9 | 0.00 | 0.00 | 0.00 | 27 | 975.9 |
| 20260504140747 | 14 | 210 | 3.2 | 8.0 | 0.00 | 0.00 | 0.00 | 32 | 975.6 |
| 20260504140246 | 14 | 248 | 3.2 | 8.0 | 0.00 | 0.00 | 0.00 | 32 | 975.6 |
| 20260504130750 | 9 | 217 | 0.0 | 1.6 | 0.00 | 0.00 | 0.00 | 41 | 975.5 |
| 20260504130746 | 10 | 243 | 0.0 | 1.6 | 0.00 | 0.00 | 0.00 | 38 | 975.5 |
| 20260504110241 | 3 | 162 | 0.0 | 0.0 | 0.00 | 0.00 | 0.00 | 60 | 975.6 |
| 20260504100238 | 4 | 146 | 0.0 | 0.0 | 0.00 | 0.00 | 0.00 | 57 | 975.9 |
| 20260504081730 | 8 | 208 | 0.0 | 0.0 | 0.00 | 0.00 | 0.00 | 44 | 976.2 |
| 20260504081230 | 9 | 208 | 0.0 | 1.6 | 0.00 | 0.00 | 0.00 | 42 | 976.2 |
| 20260504080735 | 11 | 189 | 0.0 | 3.2 | 0.00 | 0.00 | 0.00 | 36 | 976.3 |
| 20260504080731 | 10 | 208 | 0.0 | 1.6 | 0.00 | 0.00 | 0.00 | 36 | 976.3 |
| 20260504080229 | 10 | 208 | 0.0 | 3.2 | 0.00 | 0.00 | 0.00 | 36 | 976.3 |
| 20260504070227 | 11 | 203 | 0.0 | 1.6 | 0.00 | 0.00 | 0.00 | 34 | 976.7 |
| 20260504060223 | 7 | 146 | 0.0 | 0.0 | 0.00 | 0.00 | 0.00 | 52 | 977.2 |
| 20260504050722 | 9 | 146 | 0.0 | 0.0 | 0.00 | 0.00 | 0.00 | 47 | 977.5 |
| 20260504050222 | 9 | 148 | 0.0 | 0.0 | 0.00 | 0.00 | 0.00 | 47 | 977.5 |
| 20260504045720 | 9 | 148 | 0.0 | 0.0 | 0.00 | 0.00 | 0.00 | 49 | 977.6 |
| 20260504045221 | 9 | 148 | 0.0 | 0.0 | 0.00 | 0.00 | 0.00 | 49 | 977.6 |
| 20260504044720 | 10 | 148 | 0.0 | 0.0 | 0.00 | 0.00 | 0.00 | 46 | 977.6 |
| 20260504044218 | 10 | 148 | 0.0 | 0.0 | 0.00 | 0.00 | 0.00 | 45 | 977.8 |
| 20260504043722 | 10 | 148 | 0.0 | 0.0 | 0.00 | 0.00 | 0.00 | 42 | 977.8 |
| 20260504043718 | 10 | 147 | 0.0 | 0.0 | 0.00 | 0.00 | 0.00 | 45 | 977.8 |
| 20260504042718 | 10 | 147 | 0.0 | 0.0 | 0.00 | 0.00 | 0.00 | 44 | 977.9 |
| 20260504042218 | 10 | 147 | 0.0 | 0.0 | 0.00 | 0.00 | 0.00 | 45 | 977.9 |
| 20260504041718 | 10 | 147 | 0.0 | 0.0 | 0.00 | 0.00 | 0.00 | 44 | 977.9 |
| 20260504041218 | 11 | 146 | 0.0 | 0.0 | 0.00 | 0.00 | 0.00 | 41 | 978.0 |
| 20260504040718 | 11 | 146 | 0.0 | 0.0 | 0.00 | 0.00 | 0.00 | 40 | 978.0 |
| 20260504040218 | 11 | 185 | 0.0 | 0.0 | 0.00 | 0.00 | 0.00 | 40 | 978.1 |
| 20260504035717 | 11 | 185 | 0.0 | 0.0 | 0.00 | 0.00 | 0.00 | 40 | 978.1 |
| 20260504035216 | 11 | 185 | 0.0 | 0.0 | 0.00 | 0.00 | 0.00 | 39 | 978.2 |
| 20260504034716 | 12 | 185 | 0.0 | 0.0 | 0.00 | 0.00 | 0.00 | 38 | 978.1 |
| 20260504034216 | 12 | 185 | 0.0 | 0.0 | 0.00 | 0.00 | 0.00 | 37 | 978.2 |
| 20260504033716 | 12 | 185 | 0.0 | 0.0 | 0.00 | 0.00 | 0.00 | 37 | 978.2 |
| 20260504033220 | 12 | 185 | 0.0 | 0.0 | 0.00 | 0.00 | 0.00 | 36 | 978.1 |
| 20260504033216 | 12 | 185 | 0.0 | 0.0 | 0.00 | 0.00 | 0.00 | 38 | 978.1 |
| 20260504032216 | 12 | 185 | 0.0 | 0.0 | 0.00 | 0.00 | 0.00 | 36 | 978.1 |
| 20260504031716 | 12 | 185 | 0.0 | 0.0 | 0.00 | 0.00 | 0.00 | 37 | 978.0 |
| 20260504031219 | 13 | 171 | 0.0 | 1.6 | 0.00 | 0.00 | 0.00 | 37 | 977.9 |
| 20260504031215 | 12 | 185 | 0.0 | 0.0 | 0.00 | 0.00 | 0.00 | 38 | 977.9 |
| 20260504030714 | 12 | 185 | 0.0 | 1.6 | 0.00 | 0.00 | 0.00 | 37 | 977.9 |
| 20260504025714 | 13 | 140 | 0.0 | 3.2 | 0.00 | 0.00 | 0.00 | 36 | 978.0 |
| 20260504025212 | 13 | 153 | 0.0 | 3.2 | 0.00 | 0.00 | 0.00 | 35 | 978.0 |
| 20260504024712 | 14 | 190 | 0.0 | 0.0 | 0.00 | 0.00 | 0.00 | 33 | 977.9 |
| 20260504024212 | 14 | 333 | 0.0 | 0.0 | 0.00 | 0.00 | 0.00 | 31 | 977.9 |
| 20260504023712 | 14 | 333 | 0.0 | 0.0 | 0.00 | 0.00 | 0.00 | 30 | 977.9 |